CW4549 Weather Reports


Display with metric or nautical units.
time (UTC)temp
F
wind
direction
speed
MPH
gust
MPH
rain 1hr
in
rain 24hr
in
rain mn
in
humidity
%
barometer
mb
20260831063016 71 0.0 0.0 0.00 0.00 0.00 98 1012.9
20260831061516 71 0.0 0.0 0.00 0.00 0.00 98 1013.1
20260831060018 71 0.0 0.0 0.00 0.00 0.00 98 1013.2
20260831054536 71 0.0 0.0 0.00 0.00 0.00 97 1013.1
20260831053018 71 0.0 0.0 0.00 0.00 0.00 97 1013.1
20260831051516 72 0.0 0.0 0.00 0.00 0.00 97 1013.0
20260831050016 72 0.0 0.0 0.00 0.00 0.00 97 1012.8
20260831044516 72 0.0 0.0 0.00 0.00 0.00 96 1012.8
20260831043016 72 0.0 0.0 0.00 0.00 0.00 96 1012.9
20260831041537 72 0.0 0.0 0.00 0.00 0.00 96 1013.0
20260831040016 72 0.0 0.0 0.00 0.00 0.00 95 1013.0
20260831034519 73 0.0 0.0 0.00 0.00 0.00 95 1013.1
20260831033018 73 0.0 0.0 0.00 0.00 0.00 94 1013.2
20260831031517 73 0.0 0.0 0.00 0.00 0.00 94 1013.1
20260831030017 73 0.0 0.0 0.00 0.00 0.00 93 1013.0
20260831024519 73 0.0 0.0 0.00 0.00 0.00 92 1013.0
20260831023018 74 0.0 0.0 0.00 0.00 0.00 91 1012.9
20260831021517 74 0.0 0.0 0.00 0.00 0.00 91 1012.8
20260831020017 75 0.0 0.0 0.00 0.00 0.00 90 1012.7
20260831014517 75 0.0 0.0 0.00 0.00 0.00 89 1012.7
20260831013019 76 0.0 0.0 0.00 0.00 0.00 88 1012.6
20260831011518 76 0.0 0.0 0.00 0.00 0.00 86 1012.6
20260831010019 77 0.0 0.0 0.00 0.00 0.00 86 1012.5
20260831004517 77 0.0 0.0 0.00 0.00 0.00 85 1012.2
20260831003017 78 0.0 0.0 0.00 0.00 0.00 83 1012.1
20260831001519 79 0.0 0.0 0.00 0.00 0.00 81 1012.2
20260831000018 80 0.0 0.0 0.00 0.00 0.00 77 1012.2
20260830234519 81 0.0 0.0 0.00 0.00 0.00 75 1012.2
20260830233017 83 0.0 0.0 0.00 0.00 0.00 72 1012.0
20260830231519 84 0.0 1.0 0.00 0.00 0.00 69 1011.8
20260830230039 85 0.0 2.0 0.00 0.00 0.00 64 1011.9
20260830224517 85 0.0 0.0 0.00 0.00 0.00 63 1011.7
20260830223015 86 0.0 0.0 0.00 0.00 0.00 60 1011.8
20260830221536 87 0.0 2.0 0.00 0.00 0.00 58 1011.7
20260830220035 87 0.0 1.0 0.00 0.00 0.00 53 1011.7
20260830214517 87 0.0 3.0 0.00 0.00 0.00 52 1011.9
20260830213016 88 0.0 7.0 0.00 0.00 0.00 49 1012.2
20260830211538 89 0.0 7.0 0.00 0.00 0.00 47 1012.2
20260830210036 89 158 1.0 6.0 0.00 0.00 0.00 46 1012.2
20260830204516 90 158 1.0 11.0 0.00 0.00 0.00 45 1012.6
20260830203016 90 158 1.0 6.0 0.00 0.00 0.00 46 1012.5
20260830201516 90 135 1.0 6.0 0.00 0.00 0.00 48 1012.8
20260830200037 90 0.0 5.0 0.00 0.00 0.00 45 1013.0
20260830194537 90 0.0 6.0 0.00 0.00 0.00 43 1013.4
20260830193016 88 0.0 2.0 0.00 0.00 0.00 48 1013.5
20260830191515 90 0.0 3.0 0.00 0.00 0.00 46 1013.8
20260830190036 90 0.0 4.0 0.00 0.00 0.00 44 1014.0
20260830184536 89 0.0 3.0 0.00 0.00 0.00 47 1014.5
20260830183016 88 0.0 3.0 0.00 0.00 0.00 47 1014.6
20260830181537 88 0.0 8.0 0.00 0.00 0.00 52 1014.9
20260830180016 88 0.0 5.0 0.00 0.00 0.00 49 1015.0
20260830174516 89 135 1.0 13.0 0.00 0.00 0.00 50 1015.1
20260830173016 88 0.0 3.0 0.00 0.00 0.00 51 1015.2
20260830171517 89 0.0 7.0 0.00 0.00 0.00 54 1015.2
20260830170016 88 0.0 6.0 0.00 0.00 0.00 58 1015.2
20260830164516 87 158 2.0 8.0 0.00 0.00 0.00 58 1015.1
20260830163016 87 158 1.0 7.0 0.00 0.00 0.00 60 1015.0
20260830161516 86 0.0 7.0 0.00 0.00 0.00 62 1015.1
20260830160017 86 0.0 4.0 0.00 0.00 0.00 60 1015.0
20260830154516 85 158 1.0 7.0 0.00 0.00 0.00 63 1015.0
20260830153039 84 158 1.0 6.0 0.00 0.00 0.00 67 1015.0
20260830151516 83 158 1.0 7.0 0.00 0.00 0.00 66 1014.9
20260830150016 82 180 1.0 6.0 0.00 0.00 0.00 68 1014.8
20260830144536 81 158 1.0 5.0 0.00 0.00 0.00 71 1014.5
20260830143017 80 0.0 2.0 0.00 0.00 0.00 74 1014.4
20260830141516 79 158 1.0 4.0 0.00 0.00 0.00 75 1014.1
20260830140016 77 0.0 5.0 0.00 0.00 0.00 80 1013.9
20260830134518 75 158 1.0 6.0 0.00 0.00 0.00 82 1013.9
20260830133016 74 0.0 3.0 0.00 0.00 0.00 91 1014.0
20260830131516 71 0.0 1.0 0.00 0.00 0.00 99 1014.1
20260830130018 70 0.0 0.0 0.00 0.00 0.00 100 1014.2
20260830124516 69 0.0 0.0 0.00 0.00 0.00 100 1014.3
20260830123016 68 0.0 0.0 0.00 0.00 0.00 100 1014.4
20260830121536 67 0.0 0.0 0.00 0.00 0.00 100 1014.4
20260830120016 66 0.0 0.0 0.00 0.00 0.00 100 1014.2
20260830114536 66 0.0 0.0 0.00 0.00 0.00 100 1013.9
20260830113016 66 0.0 0.0 0.00 0.00 0.00 100 1013.7
20260830111516 66 0.0 0.0 0.00 0.00 0.00 100 1013.6
20260830110017 66 0.0 0.0 0.00 0.00 0.00 100 1013.6
20260830104516 66 0.0 0.0 0.00 0.00 0.00 100 1013.7
20260830103018 67 0.0 0.0 0.00 0.00 0.00 100 1013.8
20260830101516 67 0.0 0.0 0.00 0.00 0.00 100 1013.7
20260830100016 67 0.0 0.0 0.00 0.00 0.00 100 1013.7
20260830094516 68 0.0 0.0 0.00 0.00 0.00 100 1013.6
20260830093016 68 0.0 0.0 0.00 0.00 0.00 100 1013.5
20260830091516 68 0.0 0.0 0.00 0.00 0.00 100 1013.5
20260830090037 68 0.0 0.0 0.00 0.00 0.00 100 1013.5
20260830084516 68 0.0 0.0 0.00 0.00 0.00 100 1013.4
20260830083016 68 0.0 0.0 0.00 0.00 0.00 100 1013.6
20260830081559 68 0.0 0.0 0.00 0.00 0.00 100 1013.5
20260830080016 68 0.0 0.0 0.00 0.00 0.00 100 1013.7
20260830074537 68 0.0 0.0 0.00 0.00 0.00 100 1013.7
20260830073018 68 0.0 0.0 0.00 0.00 0.00 100 1013.9
20260830071516 68 0.0 0.0 0.00 0.00 0.00 100 1013.9
20260830070036 68 0.0 0.0 0.00 0.00 0.00 100 1014.0
20260830064516 68 0.0 0.0 0.00 0.00 0.00 99 1014.1